Weather History for KNUQ - February, 2014

Change the Weather History Date:

Monday, February 3, 2014

  Actual Average Record
Temperature  
Mean Temperature 50 °F 52 °F  
Max Temperature 57 °F 60 °F 71 °F (2015)
Min Temperature 42 °F 44 °F 33 °F (1979)
Degree Days  
Heating Degree Days 15    
Month to date heating degree days 47  
Since 1 July heating degree days 1244  
Cooling Degree Days 0    
Month to date cooling degree days 0  
Year to date cooling degree days 0  
Moisture  
Dew Point 38 °F    
Average Humidity 67    
Maximum Humidity 86    
Minimum Humidity 47    
Precipitation  
Precipitation 0.00 in 0.10 in 0.53 in (1990)
Month to date precipitation 0.09 0.29  
Year to date precipitation 0.17 3.04  
Since 1 July precipitation 1.43  
Sea Level Pressure  
Sea Level Pressure 30.06 in    
Wind  
Wind Speed 5 mph (NW)    
Max Wind Speed 15 mph    
Max Gust Speed 20 mph    
Visibility 10 miles    
Events      
T = Trace of Precipitation, MM = Missing Value Source: NWS Daily Summary

Daily Weather History Graph

Daily Weather History Graph

Search for Another Location

Airport or City:

Trip Planner

Search our weather history database for the weather conditions in past years. The results will help you decide how hot, cold, wet, or windy it might be!

Date:

Astronomy

Feb. 03, 2014 Rise Set
Actual Time 7:09 AM PST 5:34 PM PST
Civil Twilight 6:42 AM PST 6:02 PM PST
Nautical Twilight 6:11 AM PST 6:33 PM PST
Astronomical Twilight 5:40 AM PST 7:04 PM PST
Moon 9:21 AM PST (2/3) 10:23 PM PST (2/3)
Length of Visible Light 11h 20m
Length of Day
10h 25m
Waxing Crescent, 20% of the Moon is Illuminated
Feb 3
Waxing Crescent
Feb 6
First Quarter
Feb 14
Full
Feb 22
Last Quarter
Mar 1
New

Hourly Weather History & Observations

Time (PST) Temp. Windchill Dew Point Humidity Pressure Visibility Wind Dir Wind Speed Gust Speed Precip Events Conditions
12:56 AM 46.0 °F 41.0 °F 39.9 °F 79% 30.00 in 10.0 mi North 10.4 mph - N/A   Mostly Cloudy
1:56 AM 46.0 °F 42.5 °F 39.0 °F 76% 30.02 in 10.0 mi NW 6.9 mph - N/A   Scattered Clouds
2:56 AM 44.1 °F - 39.9 °F 85% 30.03 in 10.0 mi Calm Calm - N/A   Clear
3:56 AM 44.1 °F 41.5 °F 39.9 °F 85% 30.02 in 10.0 mi WNW 4.6 mph - N/A   Partly Cloudy
4:56 AM 46.0 °F 44.8 °F 39.9 °F 79% 30.03 in 10.0 mi WNW 3.5 mph - N/A   Overcast
5:56 AM 46.0 °F 44.8 °F 39.9 °F 79% 30.04 in 10.0 mi West 3.5 mph - N/A   Overcast
6:56 AM 45.0 °F 43.5 °F 39.9 °F 82% 30.05 in 10.0 mi West 3.5 mph - N/A   Clear
7:56 AM 45.0 °F - 39.9 °F 82% 30.07 in 10.0 mi Calm Calm - N/A   Clear
8:56 AM 48.0 °F - 41.0 °F 77% 30.09 in 10.0 mi NW 3.5 mph - N/A   Clear
9:56 AM 50.0 °F - 41.0 °F 71% 30.10 in 10.0 mi North 4.6 mph - N/A   Clear
10:56 AM 52.0 °F - 42.1 °F 69% 30.11 in 10.0 mi North 5.8 mph - N/A   Clear
11:56 AM 54.0 °F - 41.0 °F 62% 30.09 in 10.0 mi NNE 6.9 mph - N/A   Clear
12:56 PM 55.0 °F - 41.0 °F 59% 30.06 in 10.0 mi NNW 12.7 mph - N/A   Partly Cloudy
1:56 PM 55.9 °F - 39.9 °F 55% 30.05 in 10.0 mi NNW 11.5 mph - N/A   Mostly Cloudy
2:56 PM 55.9 °F - 35.1 °F 45% 30.03 in 10.0 mi WNW 8.1 mph 17.3 mph N/A   Clear
3:56 PM 55.0 °F - 36.0 °F 49% 30.04 in 10.0 mi WNW 10.4 mph - N/A   Clear
4:56 PM 53.1 °F - 35.1 °F 50% 30.03 in 10.0 mi West 8.1 mph - N/A   Scattered Clouds
5:56 PM 51.1 °F - 37.0 °F 59% 30.06 in 10.0 mi WNW 4.6 mph - N/A   Mostly Cloudy
6:56 PM 50.0 °F - 36.0 °F 59% 30.06 in 10.0 mi Calm Calm - N/A   Clear
7:56 PM 48.9 °F - 37.0 °F 64% 30.08 in 10.0 mi Calm Calm - N/A   Clear
8:56 PM 46.9 °F - 36.0 °F 66% 30.09 in 10.0 mi Calm Calm - N/A   Clear
9:56 PM 44.1 °F - 35.1 °F 71% 30.09 in 10.0 mi Calm Calm - N/A   Clear
10:56 PM 44.1 °F - 36.0 °F 73% 30.10 in 10.0 mi Calm Calm - N/A   Clear
11:56 PM 42.1 °F - 35.1 °F 76% 30.10 in 10.0 mi Calm Calm - N/A   Clear